Location: Bothwell
(41.7170°N, 112.2589°W)
Time: 00:12:49
(UTC+00:00)

Explorer 7 - Visible Passes

Search period start: 12 May 2026 00:00
Search period end: 22 May 2026 00:00
Orbit: 427 x 536 km, 50.2° (Epoch: 11 May)

Date Brightness Start Highest point End Pass type
(mag) Time Alt. Az. Time Alt. Az. Time Alt. Az.
14 May 8.7 11:30:59 10° S 11:33:25 18° SE 11:35:54 10° E visible
15 May 8.8 11:03:31 10° S 11:05:44 16° SE 11:08:00 10° E visible
16 May 8.8 10:36:11 10° SSE 10:38:03 14° SE 10:40:04 10° E visible
17 May 8.8 10:09:37 12° SE 10:10:21 13° SE 10:12:05 10° ESE visible
18 May 9.0 09:42:57 12° SE 09:42:57 12° SE 09:44:00 10° ESE visible
18 May 6.4 11:17:10 12° SW 11:20:23 87° SSE 11:24:00 10° ENE visible
19 May 6.3 10:50:27 21° SW 10:52:37 80° SSE 10:56:14 10° ENE visible
20 May 6.3 10:23:39 37° SW 10:24:52 74° SE 10:28:26 10° ENE visible
21 May 6.3 09:56:48 62° S 09:57:06 67° SE 10:00:38 10° ENE visible
